,,PA_Meas_PMT16A,,PR_Meas_QMR101_102,,RH_Meas_QMH101,,SR_Meas_QMS101,,TA_Meas_QMH101,,GenWind,,GenWind,
time,status,PA,status,PR,status,RH,status,SR,status,TA,status,DirAvg,status,SpdAvg,
2012-04-28, 00:00:04,VALID,918.404,VALID,0,VALID,96.4286,VALID,0,VALID,19.7013,VALID,13,VALID,0.498437,
2012-04-28, 00:01:04,VALID,918.39,VALID,0,VALID,96.1999,VALID,0,VALID,19.6233,VALID,14,VALID,0.596094,
2012-04-28, 00:02:04,VALID,918.377,VALID,0,VALID,96.2837,VALID,0,VALID,19.6038,VALID,14,VALID,0.653516,
2012-04-28, 00:03:04,VALID,918.334,VALID,0,VALID,96.3219,VALID,0,VALID,19.5843,VALID,14,VALID,0.687891,
2012-04-28, 00:04:04,VALID,918.326,VALID,0,VALID,96.3676,VALID,0,VALID,19.5648,VALID,14,VALID,0.774219,
2012-04-28, 00:05:04,VALID,918.312,VALID,0,VALID,96.4362,VALID,0,VALID,19.5648,VALID,14,VALID,0.699609,
2012-04-28, 00:06:04,VALID,918.318,VALID,0,VALID,96.5048,VALID,0,VALID,19.5648,VALID,14,VALID,0.620703,
2012-04-28, 00:07:04,VALID,918.326,VALID,0,VALID,96.4743,VALID,0,VALID,19.5648,VALID,14,VALID,0.391406,
2012-04-28, 00:08:04,VALID,918.336,VALID,0,VALID,96.5506,VALID,0,VALID,19.5438,VALID,14,VALID,0.367578,
2012-04-28, 00:09:04,VALID,918.302,VALID,0,VALID,96.5429,VALID,0,VALID,19.5648,VALID,14,VALID,0.380859,
2012-04-28, 00:10:04,VALID,918.346,VALID,0,VALID,96.5582,VALID,0,VALID,19.5453,VALID,14,VALID,0.35625,
2012-04-28, 00:11:04,VALID,918.308,VALID,0,VALID,96.5734,VALID,0,VALID,19.5453,VALID,14,VALID,0.253125,
2012-04-28, 00:12:04,VALID,918.31,VALID,0,VALID,96.6115,VALID,0,VALID,19.5258,VALID,14,VALID,0.155469,
2012-04-28, 00:13:04,VALID,918.337,VALID,0,VALID,96.6115,VALID,0,VALID,19.5063,VALID,14,VALID,0,
2012-04-28, 00:14:04,VALID,918.318,VALID,0,VALID,96.6039,VALID,0,VALID,19.5063,VALID,14,VALID,0,
2012-04-28, 00:15:04,VALID,918.314,VALID,0,VALID,96.5506,VALID,0,VALID,19.4673,VALID,14,VALID,0,
2012-04-28, 00:16:04,VALID,918.269,VALID,0,VALID,96.5124,VALID,0.107441,VALID,19.4283,VALID,14,VALID,0.24375,
2012-04-28, 00:17:04,VALID,918.265,VALID,0,VALID,96.5887,VALID,0,VALID,19.4088,VALID,14,VALID,0,
2012-04-28, 00:18:04,VALID,918.213,VALID,0,VALID,96.6802,VALID,0,VALID,19.4478,VALID,14,VALID,0.294531,
2012-04-28, 00:19:04,VALID,918.194,VALID,0,VALID,96.6802,VALID,0,VALID,19.4478,VALID,14,VALID,0.142188,
2012-04-28, 00:20:04,VALID,918.152,VALID,0,VALID,96.6344,VALID,0,VALID,19.4478,VALID,14,VALID,0.0800781,
2012-04-28, 00:21:04,VALID,918.136,VALID,0,VALID,96.6344,VALID,0,VALID,19.4463,VALID,14,VALID,0.177344,
2012-04-28, 00:22:04,VALID,918.088,VALID,0,VALID,96.6954,VALID,0.107441,VALID,19.5063,VALID,14,VALID,0.05625,
2012-04-28, 00:23:04,VALID,918.076,VALID,0,VALID,96.5124,VALID,0,VALID,19.4673,VALID,14,VALID,0.25625,
2012-04-28, 00:24:04,VALID,918.055,VALID,0,VALID,96.1389,VALID,0.107441,VALID,19.3294,VALID,14,VALID,0.442969,
2012-04-28, 00:25:04,VALID,918.066,VALID,0,VALID,96.0855,VALID,0,VALID,19.2723,VALID,14,VALID,0.492188,
2012-04-28, 00:26:04,VALID,918.065,VALID,0,VALID,96.2533,VALID,0,VALID,19.2709,VALID,14,VALID,0.314063,
2012-04-28, 00:27:04,VALID,918.078,VALID,0,VALID,96.3905,VALID,0,VALID,19.3113,VALID,14,VALID,0,
2012-04-28, 00:28:04,VALID,918.056,VALID,0,VALID,96.2533,VALID,0,VALID,19.3308,VALID,14,VALID,0.407422,
2012-04-28, 00:29:04,VALID,918.076,VALID,0,VALID,96.4362,VALID,0,VALID,19.3113,VALID,14,VALID,0,
2012-04-28, 00:30:04,VALID,918.099,VALID,0,VALID,96.4515,VALID,0.107441,VALID,19.3503,VALID,14,VALID,0,
2012-04-28, 00:31:04,VALID,918.062,VALID,0,VALID,96.2456,VALID,0,VALID,19.2918,VALID,14,VALID,0.167187,
2012-04-28, 00:32:04,VALID,918.046,VALID,0,VALID,96.3752,VALID,0,VALID,19.2918,VALID,14,VALID,0,
2012-04-28, 00:33:04,VALID,918.07,VALID,0,VALID,96.5887,VALID,0.107441,VALID,19.3308,VALID,14,VALID,0,
2012-04-28, 00:34:04,VALID,918.072,VALID,0,VALID,96.6115,VALID,0,VALID,19.3698,VALID,14,VALID,0,
2012-04-28, 00:35:04,VALID,918.075,VALID,0,VALID,96.4972,VALID,0,VALID,19.3503,VALID,14,VALID,0,
2012-04-28, 00:36:04,VALID,918.065,VALID,0,VALID,96.3829,VALID,0.107441,VALID,19.2918,VALID,14,VALID,0,
2012-04-28, 00:37:04,VALID,918.071,VALID,0,VALID,96.5353,VALID,0,VALID,19.2918,VALID,14,VALID,0,
2012-04-28, 00:38:04,VALID,918.06,VALID,0,VALID,96.4591,VALID,0.107441,VALID,19.2918,VALID,14,VALID,0.0328125,
2012-04-28, 00:39:04,VALID,918.014,VALID,0,VALID,96.5048,VALID,0,VALID,19.2723,VALID,14,VALID,0,
2012-04-28, 00:40:04,VALID,917.996,VALID,0,VALID,96.6268,VALID,0,VALID,19.3113,VALID,14,VALID,0.327344,
2012-04-28, 00:41:04,VALID,917.978,VALID,0,VALID,96.6878,VALID,0.107441,VALID,19.3503,VALID,14,VALID,0.146875,
2012-04-28, 00:42:04,VALID,917.954,VALID,0,VALID,96.642,VALID,0,VALID,19.3308,VALID,14,VALID,0,
2012-04-28, 00:43:04,VALID,917.891,VALID,0,VALID,96.4591,VALID,0,VALID,19.2918,VALID,14,VALID,0.139062,
2012-04-28, 00:44:04,VALID,917.851,VALID,0,VALID,96.4591,VALID,0,VALID,19.2334,VALID,14,VALID,0.432031,
2012-04-28, 00:45:04,VALID,917.789,VALID,0,VALID,96.4515,VALID,0,VALID,19.1749,VALID,14,VALID,0.544141,
2012-04-28, 00:46:04,VALID,917.801,VALID,0,VALID,96.4362,VALID,0.107441,VALID,19.1164,VALID,14,VALID,0.595312,
2012-04-28, 00:47:04,VALID,917.791,VALID,0,VALID,96.3371,VALID,0,VALID,19.0384,VALID,14,VALID,0.878906,
2012-04-28, 00:48:04,VALID,917.808,VALID,0,VALID,96.3676,VALID,0,VALID,18.9799,VALID,14,VALID,0.598047,
2012-04-28, 00:49:04,VALID,917.783,VALID,0,VALID,96.4057,VALID,0,VALID,18.9214,VALID,14,VALID,0.666797,
2012-04-28, 00:50:04,VALID,917.771,VALID,0,VALID,96.4819,VALID,0,VALID,18.9229,VALID,14,VALID,0.678906,
2012-04-28, 00:51:04,VALID,917.755,VALID,0,VALID,96.5429,VALID,0,VALID,18.9019,VALID,14,VALID,0.573828,
2012-04-28, 00:52:04,VALID,917.73,VALID,0,VALID,96.7411,VALID,0,VALID,18.9604,VALID,14,VALID,0.657422,
2012-04-28, 00:53:04,VALID,917.714,VALID,0,VALID,96.5277,VALID,0,VALID,18.9409,VALID,14,VALID,0.701953,
2012-04-28, 00:54:04,VALID,917.654,VALID,0,VALID,96.2533,VALID,0,VALID,18.824,VALID,14,VALID,1.1543,
2012-04-28, 00:55:04,VALID,917.664,VALID,0,VALID,96.3981,VALID,0,VALID,18.8059,VALID,14,VALID,0.909375,
2012-04-28, 00:56:04,VALID,917.589,VALID,0,VALID,96.421,VALID,0,VALID,18.7878,VALID,14,VALID,0.701563,
2012-04-28, 00:57:04,VALID,917.642,VALID,0,VALID,96.4057,VALID,0,VALID,18.7669,VALID,14,VALID,0.429688,
2012-04-28, 00:58:04,VALID,917.647,VALID,0,VALID,96.36,VALID,0,VALID,18.7474,VALID,14,VALID,0.453125,
2012-04-28, 00:59:04,VALID,917.611,VALID,0,VALID,96.3447,VALID,0,VALID,18.707,VALID,14,VALID,0.301172,
2012-04-28, 01:00:04,VALID,917.581,VALID,0,VALID,96.421,VALID,0,VALID,18.7279,VALID,14,VALID,0.469141,
2012-04-28, 01:01:04,VALID,917.601,VALID,0,VALID,96.4286,VALID,0,VALID,18.7474,VALID,14,VALID,0.407422,
2012-04-28, 01:02:04,VALID,917.603,VALID,0,VALID,96.4743,VALID,0,VALID,18.7474,VALID,14,VALID,0.289844,
2012-04-28, 01:03:04,VALID,917.612,VALID,0,VALID,96.4057,VALID,0,VALID,18.707,VALID,14,VALID,0.248047,
2012-04-28, 01:04:04,VALID,917.612,VALID,0,VALID,96.4743,VALID,0,VALID,18.7084,VALID,14,VALID,0.724219,
2012-04-28, 01:05:04,VALID,917.574,VALID,0,VALID,96.4057,VALID,0,VALID,18.6694,VALID,14,VALID,0.796094,
2012-04-28, 01:06:04,VALID,917.558,VALID,0,VALID,96.7335,VALID,0,VALID,18.7669,VALID,14,VALID,0.627344,
2012-04-28, 01:07:04,VALID,917.539,VALID,0,VALID,96.6802,VALID,0,VALID,18.7474,VALID,14,VALID,0.33125,
2012-04-28, 01:08:04,VALID,917.524,VALID,0,VALID,96.6878,VALID,0,VALID,18.7084,VALID,14,VALID,0.248047,
2012-04-28, 01:09:04,VALID,917.521,VALID,0,VALID,96.7335,VALID,0,VALID,18.7084,VALID,14,VALID,0.470703,
2012-04-28, 01:10:04,VALID,917.502,VALID,0,VALID,96.8098,VALID,0,VALID,18.7265,VALID,14,VALID,0.239453,
2012-04-28, 01:11:04,VALID,917.507,VALID,0,VALID,96.8631,VALID,0.107441,VALID,18.7251,VALID,14,VALID,0.283594,
2012-04-28, 01:12:04,VALID,917.531,VALID,0,VALID,96.8479,VALID,0.107441,VALID,18.746,VALID,14,VALID,0,
2012-04-28, 01:13:04,VALID,917.533,VALID,0,VALID,96.8479,VALID,0,VALID,18.7265,VALID,14,VALID,0,
2012-04-28, 01:14:04,VALID,917.568,VALID,0,VALID,96.9012,VALID,0,VALID,18.7265,VALID,14,VALID,0,
2012-04-28, 01:15:04,VALID,917.545,VALID,0,VALID,96.886,VALID,0,VALID,18.7265,VALID,13,VALID,0.194922,
2012-04-28, 01:16:04,VALID,917.552,VALID,0,VALID,96.886,VALID,0,VALID,18.707,VALID,14,VALID,0.404687,
2012-04-28, 01:17:04,VALID,917.494,VALID,0,VALID,96.9394,VALID,0,VALID,18.707,VALID,14,VALID,0.35,
2012-04-28, 01:18:04,VALID,917.511,VALID,0,VALID,96.9317,VALID,0,VALID,18.707,VALID,13,VALID,0.556641,
2012-04-28, 01:19:04,VALID,917.497,VALID,0,VALID,96.9394,VALID,0,VALID,18.6889,VALID,14,VALID,0.203906,
2012-04-28, 01:20:04,VALID,917.482,VALID,0,VALID,96.9698,VALID,0,VALID,18.668,VALID,13,VALID,0,
2012-04-28, 01:21:04,VALID,917.46,VALID,0,VALID,97.0003,VALID,0.107441,VALID,18.668,VALID,14,VALID,0.372656,
2012-04-28, 01:22:04,VALID,917.444,VALID,0,VALID,97.0232,VALID,0,VALID,18.668,VALID,13,VALID,0.450391,
2012-04-28, 01:23:04,VALID,917.493,VALID,0,VALID,97.0537,VALID,0,VALID,18.6875,VALID,14,VALID,0.398828,
2012-04-28, 01:24:04,VALID,917.463,VALID,0,VALID,97.0766,VALID,0,VALID,18.6875,VALID,14,VALID,0.117188,
2012-04-28, 01:25:04,VALID,917.441,VALID,0,VALID,97.0766,VALID,0,VALID,18.6875,VALID,14,VALID,0,
2012-04-28, 01:26:04,VALID,917.445,VALID,0,VALID,97.069,VALID,0.107441,VALID,18.6666,VALID,14,VALID,0.0554687,
2012-04-28, 01:27:04,VALID,917.45,VALID,0,VALID,97.0232,VALID,0,VALID,18.629,VALID,14,VALID,0.0949219,
2012-04-28, 01:28:04,VALID,917.431,VALID,0,VALID,97.0613,VALID,0,VALID,18.629,VALID,14,VALID,0,
2012-04-28, 01:29:04,VALID,917.441,VALID,0,VALID,97.008,VALID,0.107441,VALID,18.59,VALID,13,VALID,0,
2012-04-28, 01:30:04,VALID,917.383,VALID,0,VALID,97.0613,VALID,0,VALID,18.59,VALID,325,VALID,0.645312,
2012-04-28, 01:31:04,VALID,917.344,VALID,0,VALID,97.1986,VALID,0,VALID,18.6485,VALID,248,VALID,0.480469,
2012-04-28, 01:32:04,VALID,917.337,VALID,0,VALID,97.229,VALID,0,VALID,18.668,VALID,248,VALID,0.152344,
2012-04-28, 01:33:04,VALID,917.323,VALID,0,VALID,97.2367,VALID,0,VALID,18.6875,VALID,248,VALID,0.00429688,
2012-04-28, 01:34:04,VALID,917.322,VALID,0,VALID,97.2214,VALID,0,VALID,18.707,VALID,248,VALID,0,
2012-04-28, 01:35:04,VALID,917.322,VALID,0,VALID,97.1986,VALID,0.107441,VALID,18.6875,VALID,248,VALID,0,
2012-04-28, 01:36:04,VALID,917.332,VALID,0,VALID,97.0766,VALID,0,VALID,18.629,VALID,248,VALID,0,
2012-04-28, 01:37:04,VALID,917.363,VALID,0,VALID,96.6573,VALID,0.107441,VALID,18.4146,VALID,248,VALID,0.509766,
2012-04-28, 01:38:04,VALID,917.406,VALID,0,VALID,96.8555,VALID,0,VALID,18.3172,VALID,248,VALID,0.551172,
2012-04-28, 01:39:04,VALID,917.419,VALID,0,VALID,96.9698,VALID,0.107441,VALID,18.2768,VALID,248,VALID,0.10625,
2012-04-28, 01:40:04,VALID,917.462,VALID,0,VALID,97.0537,VALID,0,VALID,18.2782,VALID,248,VALID,0,
2012-04-28, 01:41:04,VALID,917.43,VALID,0,VALID,97.3129,VALID,0.107441,VALID,18.4146,VALID,248,VALID,0.269922,
2012-04-28, 01:42:04,VALID,917.414,VALID,0,VALID,97.3434,VALID,0,VALID,18.5316,VALID,248,VALID,0,
2012-04-28, 01:43:04,VALID,917.386,VALID,0,VALID,97.3205,VALID,0,VALID,18.572,VALID,248,VALID,0,
2012-04-28, 01:44:04,VALID,917.381,VALID,0,VALID,97.3358,VALID,0,VALID,18.5705,VALID,248,VALID,0,
2012-04-28, 01:45:04,VALID,917.378,VALID,0,VALID,97.3129,VALID,0,VALID,18.5914,VALID,248,VALID,0.263672,
2012-04-28, 01:46:04,VALID,917.319,VALID,0,VALID,97.3205,VALID,0,VALID,18.59,VALID,248,VALID,0.270703,
2012-04-28, 01:47:04,VALID,917.317,VALID,0,VALID,97.3586,VALID,0.107441,VALID,18.668,VALID,248,VALID,0.00585938,
2012-04-28, 01:48:04,VALID,917.294,VALID,0,VALID,97.3586,VALID,0,VALID,18.746,VALID,248,VALID,0,
2012-04-28, 01:49:04,VALID,917.296,VALID,0,VALID,97.3663,VALID,0,VALID,18.707,VALID,248,VALID,0,
2012-04-28, 01:50:04,VALID,917.29,VALID,0,VALID,97.351,VALID,0.107441,VALID,18.668,VALID,248,VALID,0,
2012-04-28, 01:51:04,VALID,917.284,VALID,0,VALID,97.3205,VALID,0,VALID,18.59,VALID,248,VALID,0,
2012-04-28, 01:52:04,VALID,917.264,VALID,0,VALID,97.1604,VALID,0,VALID,18.4731,VALID,248,VALID,0.405859,
2012-04-28, 01:53:04,VALID,917.24,VALID,0,VALID,97.0232,VALID,0,VALID,18.3366,VALID,248,VALID,0.314453,
2012-04-28, 01:54:04,VALID,917.228,VALID,0,VALID,97.1604,VALID,0,VALID,18.3561,VALID,248,VALID,0.476563,
2012-04-28, 01:55:04,VALID,917.208,VALID,0,VALID,97.1986,VALID,0,VALID,18.3172,VALID,248,VALID,0.669531,
2012-04-28, 01:56:04,VALID,917.189,VALID,0,VALID,97.1986,VALID,0.107441,VALID,18.2587,VALID,248,VALID,0.55,
2012-04-28, 01:57:04,VALID,917.187,VALID,0,VALID,97.1681,VALID,0,VALID,18.2211,VALID,248,VALID,0.767969,
2012-04-28, 01:58:04,VALID,917.156,VALID,0,VALID,97.2595,VALID,0,VALID,18.2197,VALID,248,VALID,0.777734,
2012-04-28, 01:59:04,VALID,917.172,VALID,0,VALID,97.3358,VALID,0,VALID,18.2782,VALID,248,VALID,0.16875,
2012-04-28, 02:00:04,VALID,917.152,VALID,0,VALID,97.3358,VALID,0,VALID,18.2587,VALID,248,VALID,0.690234,
2012-04-28, 02:01:04,VALID,917.143,VALID,0,VALID,97.29,VALID,0,VALID,18.2197,VALID,248,VALID,0.711328,
2012-04-28, 02:02:04,VALID,917.114,VALID,0,VALID,97.2977,VALID,0,VALID,18.2002,VALID,248,VALID,0.587891,
2012-04-28, 02:03:04,VALID,917.134,VALID,0,VALID,97.2214,VALID,0,VALID,18.1821,VALID,248,VALID,0.461719,
2012-04-28, 02:04:04,VALID,917.106,VALID,0,VALID,97.1757,VALID,0,VALID,18.0833,VALID,248,VALID,0.69375,
2012-04-28, 02:05:04,VALID,917.115,VALID,0,VALID,97.2138,VALID,0,VALID,18.0638,VALID,248,VALID,0.65,
2012-04-28, 02:06:04,VALID,917.094,VALID,0,VALID,97.3281,VALID,0,VALID,18.0846,VALID,248,VALID,0.698438,
2012-04-28, 02:07:04,VALID,917.106,VALID,0,VALID,97.3891,VALID,0,VALID,18.1028,VALID,248,VALID,0.816406,
2012-04-28, 02:08:04,VALID,917.092,VALID,0,VALID,97.3968,VALID,0,VALID,18.1807,VALID,248,VALID,1.01836,
2012-04-28, 02:09:04,VALID,917.042,VALID,0,VALID,97.4349,VALID,0,VALID,18.2406,VALID,248,VALID,0.340234,
2012-04-28, 02:10:04,VALID,917.049,VALID,0,VALID,97.4425,VALID,0,VALID,18.2211,VALID,248,VALID,0.659375,
2012-04-28, 02:11:04,VALID,917.02,VALID,0,VALID,97.4425,VALID,0,VALID,18.2002,VALID,248,VALID,0.725781,
2012-04-28, 02:12:04,VALID,917.007,VALID,0,VALID,97.4425,VALID,0,VALID,18.2002,VALID,248,VALID,1.11016,
2012-04-28, 02:13:04,VALID,916.977,VALID,0,VALID,97.4501,VALID,0,VALID,18.2392,VALID,130,VALID,0.820703,
2012-04-28, 02:14:04,VALID,916.952,VALID,0,VALID,97.4654,VALID,0,VALID,18.2782,VALID,130,VALID,0.879297,
2012-04-28, 02:15:04,VALID,916.929,VALID,0,VALID,97.473,VALID,0,VALID,18.2782,VALID,130,VALID,0.735937,
2012-04-28, 02:16:04,VALID,916.914,VALID,0,VALID,97.4806,VALID,0,VALID,18.2782,VALID,130,VALID,0.596875,
2012-04-28, 02:17:04,VALID,916.863,VALID,0,VALID,97.4959,VALID,0,VALID,18.299,VALID,130,VALID,0.751562,
2012-04-28, 02:18:04,VALID,916.86,VALID,0,VALID,97.473,VALID,0,VALID,18.2587,VALID,130,VALID,0.725781,
2012-04-28, 02:19:04,VALID,916.861,VALID,0,VALID,97.473,VALID,0,VALID,18.2406,VALID,130,VALID,0.851563,
2012-04-28, 02:20:04,VALID,916.834,VALID,0,VALID,97.4806,VALID,0,VALID,18.2211,VALID,130,VALID,1.05195,
2012-04-28, 02:21:04,VALID,916.845,VALID,0,VALID,97.4882,VALID,0,VALID,18.2016,VALID,130,VALID,0.986719,
2012-04-28, 02:22:04,VALID,916.817,VALID,0,VALID,97.4882,VALID,0,VALID,18.1626,VALID,130,VALID,0.782812,
2012-04-28, 02:23:04,VALID,916.807,VALID,0,VALID,97.5035,VALID,0,VALID,18.1612,VALID,130,VALID,1.11758,
2012-04-28, 02:24:04,VALID,916.816,VALID,0,VALID,97.4882,VALID,0,VALID,18.2016,VALID,130,VALID,0.596484,
2012-04-28, 02:25:04,VALID,916.872,VALID,0,VALID,97.5111,VALID,0,VALID,18.2197,VALID,130,VALID,0.491016,
2012-04-28, 02:26:04,VALID,916.883,VALID,0,VALID,97.5264,VALID,0,VALID,18.2406,VALID,130,VALID,0.19375,
2012-04-28, 02:27:04,VALID,916.909,VALID,0,VALID,97.5035,VALID,0.107441,VALID,18.1222,VALID,130,VALID,0.4125,
2012-04-28, 02:28:04,VALID,916.95,VALID,0,VALID,97.4806,VALID,0,VALID,18.1041,VALID,130,VALID,0.331641,
2012-04-28, 02:29:04,VALID,916.964,VALID,0,VALID,97.473,VALID,0,VALID,18.0651,VALID,130,VALID,0.620313,
2012-04-28, 02:30:04,VALID,917.004,VALID,0,VALID,97.5111,VALID,0,VALID,18.1236,VALID,130,VALID,0.811328,
2012-04-28, 02:31:04,VALID,917.005,VALID,0,VALID,97.5264,VALID,0,VALID,18.1236,VALID,130,VALID,0.848828,
2012-04-28, 02:32:04,VALID,916.965,VALID,0,VALID,97.5492,VALID,0,VALID,18.1222,VALID,130,VALID,1.00117,
2012-04-28, 02:33:04,VALID,916.984,VALID,0,VALID,97.5569,VALID,0,VALID,18.1821,VALID,130,VALID,0.991406,
2012-04-28, 02:34:04,VALID,916.953,VALID,0,VALID,97.5645,VALID,0,VALID,18.2016,VALID,130,VALID,1.08438,
2012-04-28, 02:35:04,VALID,916.932,VALID,0,VALID,97.595,VALID,0,VALID,18.2406,VALID,130,VALID,1.06875,
2012-04-28, 02:36:04,VALID,916.933,VALID,0,VALID,97.595,VALID,0,VALID,18.2002,VALID,130,VALID,0.864062,
2012-04-28, 02:37:04,VALID,916.896,VALID,0,VALID,97.5873,VALID,0,VALID,18.1612,VALID,130,VALID,0.4125,
2012-04-28, 02:38:04,VALID,916.931,VALID,0,VALID,97.6178,VALID,0,VALID,18.1821,VALID,130,VALID,0.491797,
2012-04-28, 02:39:04,VALID,916.937,VALID,0,VALID,97.595,VALID,0,VALID,18.1821,VALID,130,VALID,0.698438,
2012-04-28, 02:40:04,VALID,916.952,VALID,0,VALID,97.6026,VALID,0,VALID,18.1417,VALID,130,VALID,0.637891,
2012-04-28, 02:41:04,VALID,916.97,VALID,0,VALID,97.595,VALID,0,VALID,18.0833,VALID,130,VALID,0.615234,
2012-04-28, 02:42:04,VALID,916.976,VALID,0,VALID,97.5492,VALID,0,VALID,17.9872,VALID,130,VALID,0.321484,
2012-04-28, 02:43:04,VALID,917.011,VALID,0,VALID,97.4959,VALID,0,VALID,17.8118,VALID,130,VALID,0.208594,
2012-04-28, 02:44:04,VALID,917.021,VALID,0,VALID,97.412,VALID,0,VALID,17.674,VALID,130,VALID,0.4625,
2012-04-28, 02:45:04,VALID,917.028,VALID,0,VALID,97.3815,VALID,0,VALID,17.6169,VALID,130,VALID,0.527734,
2012-04-28, 02:46:04,VALID,917.027,VALID,0,VALID,97.3815,VALID,0,VALID,17.5181,VALID,130,VALID,0.608594,
2012-04-28, 02:47:04,VALID,917.031,VALID,0,VALID,97.5264,VALID,0,VALID,17.5584,VALID,130,VALID,0.56875,
2012-04-28, 02:48:04,VALID,917.021,VALID,0,VALID,97.5797,VALID,0,VALID,17.6169,VALID,130,VALID,0.725,
2012-04-28, 02:49:04,VALID,917.007,VALID,0,VALID,97.6102,VALID,0,VALID,17.635,VALID,130,VALID,0.767969,
2012-04-28, 02:50:04,VALID,916.965,VALID,0,VALID,97.6331,VALID,0,VALID,17.7143,VALID,130,VALID,0.637109,
2012-04-28, 02:51:04,VALID,916.974,VALID,0,VALID,97.6636,VALID,0,VALID,17.7143,VALID,130,VALID,0.488672,
2012-04-28, 02:52:04,VALID,916.974,VALID,0,VALID,97.6712,VALID,0,VALID,17.7338,VALID,130,VALID,0.396484,
2012-04-28, 02:53:04,VALID,916.958,VALID,0,VALID,97.6788,VALID,0,VALID,17.7325,VALID,130,VALID,0.119922,
2012-04-28, 02:54:04,VALID,916.931,VALID,0,VALID,97.6941,VALID,0,VALID,17.7325,VALID,130,VALID,0,
2012-04-28, 02:55:04,VALID,916.927,VALID,0,VALID,97.6712,VALID,0,VALID,17.7338,VALID,130,VALID,0,
2012-04-28, 02:56:04,VALID,916.937,VALID,0,VALID,97.6712,VALID,0,VALID,17.7143,VALID,130,VALID,0,
2012-04-28, 02:57:04,VALID,916.922,VALID,0,VALID,97.6788,VALID,0,VALID,17.6948,VALID,130,VALID,0.244531,
2012-04-28, 02:58:04,VALID,916.908,VALID,0,VALID,97.6788,VALID,0,VALID,17.635,VALID,130,VALID,0.366797,
2012-04-28, 02:59:04,VALID,916.9,VALID,0,VALID,97.6788,VALID,0,VALID,17.5974,VALID,130,VALID,0.514063,
2012-04-28, 03:00:04,VALID,916.857,VALID,0,VALID,97.6941,VALID,0,VALID,17.5974,VALID,130,VALID,0.466406,
2012-04-28, 03:01:04,VALID,916.877,VALID,0,VALID,97.6712,VALID,0,VALID,17.5974,VALID,130,VALID,0.549609,
2012-04-28, 03:02:04,VALID,916.855,VALID,0,VALID,97.6865,VALID,0,VALID,17.6364,VALID,130,VALID,0.542188,
2012-04-28, 03:03:04,VALID,916.857,VALID,0,VALID,97.7093,VALID,0,VALID,17.6559,VALID,130,VALID,0.36875,
2012-04-28, 03:04:04,VALID,916.872,VALID,0,VALID,97.7246,VALID,0,VALID,17.6948,VALID,130,VALID,0.503906,
2012-04-28, 03:05:04,VALID,916.88,VALID,0,VALID,97.7246,VALID,0,VALID,17.6559,VALID,143,VALID,0.748828,
2012-04-28, 03:06:04,VALID,916.87,VALID,0,VALID,97.7246,VALID,0,VALID,17.5779,VALID,143,VALID,0.510547,
2012-04-28, 03:07:04,VALID,916.888,VALID,0,VALID,97.7169,VALID,0,VALID,17.5389,VALID,152,VALID,1.01523,
2012-04-28, 03:08:04,VALID,916.868,VALID,0,VALID,97.7246,VALID,0,VALID,17.461,VALID,158,VALID,0.960156,
2012-04-28, 03:09:04,VALID,916.858,VALID,0,VALID,97.6788,VALID,0,VALID,17.4415,VALID,158,VALID,0.799219,
2012-04-28, 03:10:04,VALID,916.861,VALID,0,VALID,97.7093,VALID,0,VALID,17.5779,VALID,158,VALID,1.08008,
2012-04-28, 03:11:04,VALID,916.856,VALID,0,VALID,97.7322,VALID,0,VALID,17.6948,VALID,158,VALID,0.652344,
2012-04-28, 03:12:04,VALID,916.864,VALID,0,VALID,97.7551,VALID,0,VALID,17.7338,VALID,158,VALID,0.459766,
2012-04-28, 03:13:04,VALID,916.841,VALID,0,VALID,97.7474,VALID,0,VALID,17.7143,VALID,146,VALID,0.508984,
2012-04-28, 03:14:04,VALID,916.846,VALID,0,VALID,97.7322,VALID,0,VALID,17.6169,VALID,146,VALID,0.233594,
2012-04-28, 03:15:04,VALID,916.854,VALID,0,VALID,97.7246,VALID,0,VALID,17.5584,VALID,146,VALID,0,
2012-04-28, 03:16:04,VALID,916.839,VALID,0,VALID,97.7246,VALID,0,VALID,17.5389,VALID,146,VALID,0,
2012-04-28, 03:17:04,VALID,916.841,VALID,0,VALID,97.7398,VALID,0,VALID,17.5779,VALID,146,VALID,0,
2012-04-28, 03:18:04,VALID,916.831,VALID,0,VALID,97.7398,VALID,0,VALID,17.5974,VALID,146,VALID,0,
2012-04-28, 03:19:04,VALID,916.807,VALID,0,VALID,97.7474,VALID,0,VALID,17.6169,VALID,146,VALID,0,
2012-04-28, 03:20:04,VALID,916.787,VALID,0,VALID,97.7398,VALID,0,VALID,17.6559,VALID,146,VALID,0,
2012-04-28, 03:21:04,VALID,916.784,VALID,0,VALID,97.7246,VALID,0,VALID,17.4986,VALID,146,VALID,0,
2012-04-28, 03:22:04,VALID,916.767,VALID,0,VALID,97.7169,VALID,0,VALID,17.5,VALID,146,VALID,0,
2012-04-28, 03:23:04,VALID,916.777,VALID,0,VALID,97.7398,VALID,0,VALID,17.5,VALID,146,VALID,0,
2012-04-28, 03:24:04,VALID,916.795,VALID,0,VALID,97.7474,VALID,0,VALID,17.461,VALID,146,VALID,0,
2012-04-28, 03:25:04,VALID,916.803,VALID,0,VALID,97.7169,VALID,0,VALID,17.5389,VALID,146,VALID,0.439844,
2012-04-28, 03:26:04,VALID,916.815,VALID,0,VALID,97.7322,VALID,0,VALID,17.6156,VALID,146,VALID,0.621875,
2012-04-28, 03:27:04,VALID,916.843,VALID,0,VALID,97.7474,VALID,0,VALID,17.6559,VALID,146,VALID,0.112109,
2012-04-28, 03:28:04,VALID,916.882,VALID,0,VALID,97.7779,VALID,0,VALID,17.6559,VALID,146,VALID,0.460938,
2012-04-28, 03:29:04,VALID,916.868,VALID,0,VALID,97.7932,VALID,0,VALID,17.6754,VALID,146,VALID,0.330078,
2012-04-28, 03:30:04,VALID,916.925,VALID,0,VALID,97.7856,VALID,0,VALID,17.6559,VALID,146,VALID,0.00429688,
2012-04-28, 03:31:04,VALID,916.926,VALID,0,VALID,97.7856,VALID,0,VALID,17.6559,VALID,146,VALID,0.0753906,
2012-04-28, 03:32:04,VALID,916.933,VALID,0,VALID,97.7627,VALID,0,VALID,17.5584,VALID,186,VALID,0.625,
2012-04-28, 03:33:04,VALID,916.932,VALID,0,VALID,97.7703,VALID,0,VALID,17.6364,VALID,186,VALID,0.572656,
2012-04-28, 03:34:04,VALID,916.931,VALID,0,VALID,97.7779,VALID,0,VALID,17.7143,VALID,186,VALID,0.335938,
2012-04-28, 03:35:04,VALID,916.953,VALID,0,VALID,97.7627,VALID,0,VALID,17.7338,VALID,186,VALID,0,
2012-04-28, 03:36:04,VALID,916.967,VALID,0,VALID,97.7779,VALID,0,VALID,17.7923,VALID,186,VALID,0.00117188,
2012-04-28, 03:37:04,VALID,916.917,VALID,0,VALID,97.7703,VALID,0,VALID,17.7923,VALID,186,VALID,0,
2012-04-28, 03:38:04,VALID,916.965,VALID,0,VALID,97.7856,VALID,0,VALID,17.713,VALID,186,VALID,0,
2012-04-28, 03:39:04,VALID,916.948,VALID,0,VALID,97.7551,VALID,0,VALID,17.6754,VALID,186,VALID,0,
2012-04-28, 03:40:04,VALID,916.973,VALID,0,VALID,97.7856,VALID,0,VALID,17.6935,VALID,186,VALID,0.310547,
2012-04-28, 03:41:04,VALID,916.967,VALID,0,VALID,97.7856,VALID,0,VALID,17.7143,VALID,186,VALID,0.456641,
2012-04-28, 03:42:04,VALID,916.981,VALID,0,VALID,97.7703,VALID,0,VALID,17.7533,VALID,186,VALID,0.325781,
2012-04-28, 03:43:04,VALID,916.962,VALID,0,VALID,97.7703,VALID,0,VALID,17.7338,VALID,186,VALID,0.485156,
2012-04-28, 03:44:04,VALID,916.981,VALID,0,VALID,97.7551,VALID,0,VALID,17.6948,VALID,186,VALID,0.346094,
2012-04-28, 03:45:04,VALID,916.987,VALID,0,VALID,97.7551,VALID,0,VALID,17.6754,VALID,186,VALID,0.0597656,
2012-04-28, 03:46:04,VALID,916.979,VALID,0,VALID,97.7551,VALID,0,VALID,17.6754,VALID,186,VALID,0,
2012-04-28, 03:47:04,VALID,916.977,VALID,0,VALID,97.7474,VALID,0,VALID,17.6364,VALID,186,VALID,0.0410156,